This demonstration page uses our WeatherBlox Daily Observations layout. Learn more.

Left ArrowRight Arrow

Hourly Observations for October 10, 2020

Temp ( °F °C ) Dew Point ( °F °C ) Humidity (%) Winds ( mph kmh ) Pressure ( in mb ) Visibility ( mi km ) Precip ( " mm )
12:53 am 00:53 Clear 57 13.9 45 7.2 64 64 NNE 5 7 29.81 1009 9 14 0.00 0.00
1:53 am 01:53 Clear 54 12.2 43 6.1 67 67 N 3 6 29.82 1010 10 16 0.00 0.00
2:53 am 02:53 Clear 54 12.2 44 6.7 69 69 N 5 7 29.82 1010 10 16 0.00 0.00
3:53 am 03:53 Clear 53 11.7 44 6.7 72 72 N 5 7 29.83 1010 10 16 0.00 0.00
4:53 am 04:53 Clear 52 11.1 43 6.1 72 72 N 6 9 29.85 1011 10 16 0.00 0.00
5:53 am 05:53 Clear 51 10.6 42 5.6 71 71 NNW 5 7 29.87 1012 10 16 0.00 0.00
6:53 am 06:53 Clear 52 11.1 43 6.1 72 72 NNE 7 11 29.90 1013 10 16 0.00 0.00
7:53 am 07:53 Sunny 49 9.4 42 5.6 77 77 NNE 7 11 29.93 1014 10 16 0.00 0.00
8:53 am 08:53 Sunny 57 13.9 44 6.7 62 62 NE 10 17 29.94 1014 10 16 0.00 0.00
9:53 am 09:53 Sunny 63 17.2 44 6.7 50 50 ENE 13 20 29.94 1014 10 16 0.00 0.00
10:53 am 10:53 Sunny 67 19.4 45 7.2 45 45 ENE 13 20 29.95 1014 10 16 0.00 0.00
11:53 am 11:53 Sunny with Light Rain 72 22.2 45 7.2 38 38 E 15 24 29.93 1013 10 16 0.00 0.00
12:53 pm 12:53 Sunny with Light Rain 77 25 46 7.8 33 33 E 14 22 29.92 1013 10 16 0.00 0.00
1:53 pm 13:53 Sunny 79 26.1 46 7.8 31 31 ESE 12 19 29.90 1013 10 16 0.00 0.00
2:53 pm 14:53 Sunny 80 26.7 46 7.8 30 30 E 13 20 29.88 1012 10 16 0.00 0.00
3:53 pm 15:53 Sunny 81 27.2 47 8.3 30 30 ESE 10 17 29.85 1011 10 16 0.00 0.00
4:53 pm 16:53 Sunny 81 27.2 48 8.9 32 32 E 9 15 29.84 1010 10 16 0.00 0.00
5:53 pm 17:53 Sunny 79 26.1 49 9.4 35 35 E 12 19 29.83 1010 10 16 0.00 0.00
6:53 pm 18:53 Sunny 75 23.9 51 10.6 43 43 E 7 11 29.83 1010 9 14 0.00 0.00
7:53 pm 19:53 Clear 73 22.8 51 10.6 46 46 E 9 15 29.83 1010 10 16 0.00 0.00
8:53 pm 20:53 Clear 71 21.7 51 10.6 49 49 ESE 10 17 29.83 1010 10 16 0.00 0.00
9:53 pm 21:53 Clear 68 20 51 10.6 55 55 ESE 12 19 29.82 1010 10 16 0.00 0.00
10:53 pm 22:53 Clear 66 18.9 54 12.2 65 65 SE 9 15 29.81 1009 10 16 0.00 0.00
11:53 pm 23:53 Clear 64 17.8 56 13.3 75 75 SSE 8 13 29.80 1009 10 16 0.00 0.00

Powered by AerisWeather